Location: Como
(45.7830°N, 9.0830°E)
Time: 13:10:01
(UTC+02:00)

ISS - Visible Passes

Search period start: 11 May 2021 00:00
Search period end: 21 May 2021 00:00
Orbit: 417 x 422 km, 51.6° (Epoch: 11 May)

Date Brightness Start Highest point End Pass type
(mag) Time Alt. Az. Time Alt. Az. Time Alt. Az.
11 May -1.8 02:04:21 30° NNE 02:04:21 30° NNE 02:06:34 10° NE visible
11 May -1.8 03:37:43 10° WNW 03:40:45 30° N 03:43:48 10° ENE visible
11 May -3.4 05:14:35 10° WNW 05:17:57 70° NNE 05:21:19 10° ESE visible
12 May -1.1 01:18:16 16° NE 01:18:16 16° NE 01:19:08 10° NE visible
12 May -1.7 02:51:12 17° NW 02:53:10 29° N 02:56:11 10° ENE visible
12 May -2.8 04:27:10 10° WNW 04:30:28 50° NNE 04:33:46 10° E visible
13 May -1.8 02:05:02 28° NNW 02:05:35 29° N 02:08:37 10° ENE visible
13 May -2.3 03:39:44 10° NW 03:42:57 39° NNE 03:46:10 10° E visible
13 May -3.6 05:16:33 10° WNW 05:19:51 51° SW 05:23:08 10° SE visible
14 May -1.8 01:18:38 29° NNE 01:18:38 29° NNE 01:21:06 10° ENE visible
14 May -2.0 02:52:17 10° NW 02:55:23 33° N 02:58:31 10° ENE visible
14 May -3.9 04:29:05 10° WNW 04:32:28 80° SSW 04:35:50 10° ESE visible
14 May -3.8 22:50:12 10° SW 22:53:31 59° SE 22:55:36 20° ENE visible
15 May -2.2 00:27:17 10° W 00:30:28 37° NNW 00:33:38 10° NE visible
15 May -1.8 02:04:48 10° WNW 02:07:50 30° N 02:10:52 10° ENE visible
15 May -3.5 03:41:39 10° WNW 03:45:01 70° NNE 03:48:24 10° ESE visible
15 May -3.3 22:03:01 10° SSW 22:06:09 37° SE 22:09:18 10° ENE visible
15 May -2.7 23:39:39 10° W 23:42:56 46° NNW 23:46:12 10° NE visible
16 May -1.7 01:17:15 10° WNW 01:20:15 29° N 01:23:15 10° ENE visible
16 May -2.9 02:54:14 10° WNW 02:57:32 50° NNE 03:00:51 10° E visible
16 May -3.1 04:31:12 10° WNW 04:34:15 32° SW 04:37:18 10° SSE visible
16 May -3.3 22:52:05 10° WSW 22:55:26 63° NNW 22:58:47 10° ENE visible
17 May -1.7 00:29:38 10° WNW 00:32:39 29° N 00:35:41 10° ENE visible
17 May -2.4 02:06:48 10° NW 02:10:01 39° NNE 02:13:13 10° E visible
17 May -3.7 03:43:37 10° WNW 03:46:55 51° SW 03:50:11 10° SE visible
17 May -3.8 22:04:37 10° WSW 22:07:58 90° NNE 22:11:21 10° ENE visible
17 May -1.9 23:42:00 10° WNW 23:45:05 32° N 23:48:10 10° ENE visible
18 May -2.0 01:19:21 10° NW 01:22:28 33° N 01:22:57 31° NNE visible
18 May -2.2 22:54:21 10° W 22:57:31 37° NNW 23:00:41 10° NE visible
19 May -1.8 00:31:51 10° WNW 00:34:53 30° N 00:36:34 19° NE visible
19 May -1.3 02:08:42 10° WNW 02:09:29 16° WNW 02:09:29 16° WNW visible
19 May -2.6 22:06:43 10° W 22:09:59 46° NNW 22:13:15 10° NE visible
19 May -1.7 23:44:18 10° WNW 23:47:18 29° N 23:50:18 10° ENE visible
20 May -2.1 01:21:17 10° WNW 01:23:19 31° NW 01:23:19 31° NW visible
20 May -1.7 22:56:42 10° WNW 22:59:43 29° N 23:02:43 10° ENE visible
